Location: Berg
(48.4333°N, 13.9167°E)
Time: 09:30:30
(UTC+00:00)

Cosmos 1269 Rocket - Pass Details

Date: 18 September 2020
Orbit: 772 x 780 km, 74.1° (Epoch: 27 October)

Event Time Altitude Azimuth Distance (km) Brightness Sun altitude
Rises 19:33:22 0° 338° (NNW) 3,274 8.1 -23.4°
Reaches altitude 10° 19:35:47 10° 341° (NNW) 2,343 7.2 -23.7°
Maximum altitude 19:41:05 69° 65° (ENE) 837 4.0 -24.4°
Enters shadow 19:41:27 66° 93° (E) 850 3.9 -24.5°
